[[{"header":{"parameterUnit":"m.s-1","parameterCategory":1,"la1":30.2991,"la2":30.254,"lo1":-89.0895,"lo2":-89.0444,"dy":0.0017,"dx":0.0017,"nx":28,"ny":28,"refTime":"2025-08-19T09:00:00:Z","depth":0,"parameterNumber":2,"parameterNumberName":"U-component_of_WINDS"},"data":[0,0,0,0,0,0,0,0,0,0,0,0,0,0,0,0,0,0,0,0,0,0,0,0,0,0,0,0,0,0,0,0,0,0,0,0,0,0,0,0,0,0,0,0,0,0,0,0,0,0,0,0,0,0,0,0,0,0,-1.2849,-1.285,0,-1.2876,-1.2877,-1.2877,-1.2817,-1.2815,-1.2813,-1.2811,-1.284,-1.2842,-1.2845,0,0,0,0,0,0,0,0,0,0,0,0,0,-1.2746,-1.2748,-1.2849,-1.285,-1.285,-1.2876,-1.2877,-1.2877,-1.2817,-1.2815,-1.2813,-1.2811,-1.2839,-1.2842,-1.2845,0,0,0,0,0,0,0,0,0,0,0,0,0,-1.2784,-1.2749,-1.2849,-1.2823,-1.2821,-1.2876,-1.2877,-1.2877,-1.2818,-1.2815,-1.2812,-1.2809,-1.2838,-1.2842,-1.2845,-1.2927,0,0,-1.2857,-1.2859,0,0,0,0,0,0,0,0,-1.2782,-1.2788,-1.2827,-1.2825,-1.2823,-1.284,-1.285,-1.2894,-1.2819,-1.2819,-1.2811,-1.2808,-1.2842,-1.2846,-1.2857,-1.2928,-1.2929,-1.2857,-1.286,-1.2861,-1.2862,0,0,0,0,0,0,0,-1.2779,-1.2786,-1.286,-1.2828,-1.2825,-1.281,-1.2813,-1.2858,-1.2847,-1.2819,-1.2815,-1.2819,-1.2841,-1.2853,-1.2857,-1.293,-1.2857,-1.2861,-1.2863,-1.2865,-1.3068,-1.3071,0,0,0,0,0,0,-1.278,-1.2785,-1.2859,-1.2861,-1.2795,-1.2815,-1.2817,-1.2838,-1.2846,-1.2844,-1.2821,-1.2816,-1.2848,-1.2853,-1.2858,-1.2954,-1.2861,-1.2865,-1.2867,-1.3065,-1.3069,-1.3072,0,0,0,0,0,0,-1.2778,-1.2787,-1.2858,-1.2821,-1.2829,-1.2819,-1.2843,-1.284,-1.2852,-1.2848,-1.2845,-1.2836,-1.2846,-1.2853,-1.291,-1.2954,-1.2867,-1.287,-1.3061,-1.3066,-1.307,-1.3146,0,0,0,0,0,0,-1.2775,-1.2787,-1.2818,-1.2823,-1.2832,-1.291,-1.2846,-1.2842,-1.2859,-1.2852,-1.2861,-1.286,-1.2844,-1.2905,-1.2914,-1.2958,-1.2873,-1.3057,-1.3063,-1.3069,-1.314,-1.3153,-1.3164,0,0,0,0,0,-1.2772,-1.2838,-1.282,-1.2829,-1.287,-1.2913,-1.2918,-1.2898,-1.2863,-1.2894,-1.2891,-1.286,-1.2947,-1.2911,-1.2921,-1.2967,-1.3054,-1.3062,-1.3068,-1.3134,-1.315,-1.3164,0,0,0,0,0,0,-1.284,-1.2839,-1.2818,-1.2888,-1.2901,-1.2902,-1.2941,-1.2916,-1.2939,-1.2932,-1.2907,-1.291,-1.2972,-1.2974,-1.2934,-1.3045,-1.2995,-1.3004,-1.3042,-1.3057,-1.3069,-1.3067,-1.2876,0,0,0,0,0,-1.2863,-1.2897,-1.2894,-1.2957,-1.2964,-1.2952,-1.2969,-1.2953,-1.2965,-1.2971,-1.2971,-1.2985,-1.3015,-1.3036,-1.3063,-1.3139,-1.314,-1.3175,-1.3187,-1.3197,-1.3206,-1.3246,-1.3262,-1.3095,-1.3095,-1.3095,0,0,-1.2911,-1.2915,-1.2938,-1.297,-1.2978,-1.3015,-1.2957,-1.2998,-1.3024,-1.2977,-1.3031,-1.3032,-1.3045,-1.3112,-1.3141,-1.3116,-1.3252,-1.3206,-1.3214,-1.3218,-1.3255,-1.3271,-1.3285,-1.31,-1.3099,-1.3098,0,0,-1.3018,-1.3024,-1.3077,-1.3085,-1.3098,-1.3089,-1.3101,-1.3106,-1.3105,-1.3159,-1.3124,-1.3155,-1.3208,-1.3218,-1.3231,-1.334,-1.3312,-1.3349,-1.3414,-1.3453,-1.3466,-1.3478,-1.3517,-1.3532,-1.3358,-1.3358,-1.3358,0,-1.3077,-1.313,-1.3107,-1.315,-1.3165,-1.3123,-1.3176,-1.3185,-1.3206,-1.3218,-1.3189,-1.3254,-1.3259,-1.3328,-1.3355,-1.3366,-1.3379,-1.3349,-1.3466,-1.3478,-1.3488,-1.3525,-1.354,-1.3363,-1.3362,-1.3362,-1.3361,0,-1.3202,-1.3239,-1.328,-1.3301,-1.332,-1.3368,-1.3352,-1.3374,-1.3356,-1.335,-1.3405,-1.341,-1.3438,-1.3452,-1.3435,-1.3519,-1.3502,-1.347,-1.3419,-1.3509,-1.3543,-1.3558,-1.3369,-1.3367,-1.3366,-1.3365,0,0,-1.3355,-1.3361,-1.3376,-1.3385,-1.3395,-1.3423,-1.3468,-1.3495,-1.3515,-1.353,-1.3568,-1.3613,-1.3583,-1.3597,-1.358,-1.3614,-1.3701,-1.3578,-1.3578,-1.3601,-1.3793,-1.3819,-1.3835,-1.3682,-1.3684,-1.3686,-1.3792,0,-1.3461,-1.354,-1.3519,-1.3597,-1.3631,-1.359,-1.363,-1.364,-1.3635,-1.3663,-1.3657,-1.369,-1.3647,-1.3656,-1.3688,-1.3684,-1.3739,-1.3675,-1.3717,-1.3719,-1.3717,-1.3853,-1.3881,-1.3981,-1.3806,-1.3808,-1.381,0,-1.3596,-1.3616,-1.3698,-1.3701,-1.3715,-1.3751,-1.3773,-1.38,-1.381,-1.3804,-1.3819,-1.3795,-1.384,-1.3787,-1.3848,-1.3805,-1.3821,-1.3821,-1.3824,-1.3829,-1.3771,-1.3863,-1.4012,-1.4027,-1.3831,-1.3829,-1.3827,0,-1.3701,-1.3748,-1.3803,-1.3811,-1.3816,-1.3842,-1.3846,-1.3853,-1.387,-1.3889,-1.39,-1.3924,-1.3938,-1.3957,-1.394,-1.3903,-1.4004,-1.395,-1.4,-1.4001,-1.4025,-1.4024,-1.418,-1.4033,-1.4033,-1.4032,-1.4032,0,-1.3823,-1.3874,-1.3849,-1.3883,-1.394,-1.3915,-1.3971,-1.397,-1.3976,-1.4009,-1.3975,-1.4006,-1.3981,-1.401,-1.3996,-1.4049,-1.4055,-1.4052,-1.4048,-1.4056,-1.4057,-1.4067,-1.406,-1.4036,-1.4035,-1.4035,-1.4034,0,-1.395,-1.3935,-1.3992,-1.3991,-1.3992,-1.4034,-1.4034,-1.4065,-1.4056,-1.4098,-1.4106,-1.4094,-1.4126,-1.411,-1.4144,-1.4135,-1.4203,-1.4189,-1.42,-1.4197,-1.4249,-1.4244,-1.4418,-1.444,-1.4277,-1.4279,-1.428,0,-1.403,-1.4068,-1.4071,-1.4091,-1.4096,-1.4127,-1.4144,-1.4121,-1.414,-1.4153,-1.4183,-1.4212,-1.4234,-1.4288,-1.4281,-1.4307,-1.4294,-1.4353,-1.4298,-1.4304,-1.4296,-1.4295,-1.4298,-1.4365,-1.4367,-1.4368,-1.4369,0,-1.4173,-1.4163,-1.4189,-1.4212,-1.4233,-1.425,-1.4264,-1.4281,-1.4258,-1.4281,-1.4313,-1.433,-1.4364,-1.4393,-1.4415,-1.4418,-1.4391,-1.4386,-1.44,-1.4409,-1.4414,-1.4413,-1.4232,-1.4383,-1.4382,-1.4381,-1.438,-1.4379,-1.4279,-1.4312,-1.4319,-1.4348,-1.4356,-1.4369,-1.4399,-1.4393,-1.442,-1.4445,-1.4429,-1.4467,-1.4475,-1.4501,-1.4508,-1.4537,-1.4514,-1.4533,-1.4538,-1.4543,-1.4551,-1.4408,-1.4541,-1.454,-1.454,-1.454,-1.4539,0,-1.4422,-1.4424,-1.4451,-1.4471,-1.4494,-1.4464,-1.4478,-1.4499,-1.4533,-1.4543,-1.4565,-1.4601,-1.4629,-1.4625,-1.465,-1.4674,-1.4662,-1.4682,-1.4681,-1.4682,-1.457,-1.4556,-1.4691,-1.4691,-1.4691,-1.4691,-1.4691,-1.4691,-1.4499,-1.4552,-1.4543,-1.4599,-1.46,-1.4637,-1.4648,-1.466,-1.4667,-1.471,-1.4732,-1.4729,-1.4732,-1.4757,-1.4781,-1.4779,-1.4791,-1.4815,-1.4809,-1.4705,-1.469,-1.4675,-1.4663,-1.4818,-1.4818,-1.4918,-1.4919,-1.492]},{"header":{"parameterUnit":"m.s-1","parameterCategory":1,"la1":30.2991,"la2":30.254,"lo1":-89.0895,"lo2":-89.0444,"dy":0.0017,"dx":0.0017,"nx":28,"ny":28,"refTime":"2025-08-19T09:00:00:Z","depth":0,"parameterNumber":3,"parameterNumberName":"V-component_of_WINDS"},"data":[0,0,0,0,0,0,0,0,0,0,0,0,0,0,0,0,0,0,0,0,0,0,0,0,0,0,0,0,0,0,0,0,0,0,0,0,0,0,0,0,0,0,0,0,0,0,0,0,0,0,0,0,0,0,0,0,0,0,-3.4556,-3.4557,0,-3.4596,-3.4596,-3.4597,-3.4527,-3.4525,-3.4523,-3.452,-3.4557,-3.456,-3.4563,0,0,0,0,0,0,0,0,0,0,0,0,0,-3.4416,-3.4419,-3.4556,-3.4557,-3.4557,-3.4596,-3.4596,-3.4597,-3.4528,-3.4525,-3.4522,-3.4519,-3.4556,-3.456,-3.4564,0,0,0,0,0,0,0,0,0,0,0,0,0,-3.4469,-3.442,-3.4556,-3.4527,-3.4525,-3.4596,-3.4597,-3.4597,-3.4528,-3.4525,-3.4521,-3.4518,-3.4555,-3.456,-3.4564,-3.4664,0,0,-3.4579,-3.4581,0,0,0,0,0,0,0,0,-3.4466,-3.4474,-3.4531,-3.4529,-3.4527,-3.4553,-3.4561,-3.4619,-3.4529,-3.4527,-3.452,-3.4516,-3.4558,-3.4563,-3.4578,-3.4665,-3.4667,-3.4579,-3.4582,-3.4584,-3.4585,0,0,0,0,0,0,0,-3.4462,-3.4472,-3.4572,-3.4532,-3.453,-3.4511,-3.4515,-3.4571,-3.4562,-3.4527,-3.4522,-3.4528,-3.4557,-3.4573,-3.4578,-3.4668,-3.4579,-3.4583,-3.4586,-3.4588,-3.4839,-3.4842,0,0,0,0,0,0,-3.4463,-3.4469,-3.457,-3.4573,-3.4487,-3.4517,-3.4521,-3.4548,-3.4561,-3.456,-3.4531,-3.4524,-3.4567,-3.4573,-3.4579,-3.4696,-3.4584,-3.4588,-3.4591,-3.4835,-3.484,-3.4844,0,0,0,0,0,0,-3.446,-3.4472,-3.4569,-3.452,-3.4531,-3.4523,-3.4554,-3.4551,-3.4567,-3.4564,-3.4561,-3.455,-3.4564,-3.4572,-3.4643,-3.4697,-3.4591,-3.4595,-3.483,-3.4836,-3.4842,-3.4932,0,0,0,0,0,0,-3.4456,-3.4472,-3.451,-3.4521,-3.4534,-3.4634,-3.4558,-3.4554,-3.4576,-3.4568,-3.4581,-3.458,-3.4562,-3.4637,-3.4648,-3.4701,-3.4599,-3.4826,-3.4833,-3.484,-3.4924,-3.494,-3.4953,0,0,0,0,0,-3.4451,-3.4533,-3.4513,-3.4525,-3.4582,-3.4637,-3.4644,-3.4623,-3.4581,-3.4619,-3.4617,-3.4579,-3.4689,-3.4645,-3.4657,-3.4712,-3.4822,-3.4831,-3.4839,-3.4917,-3.4937,-3.4953,0,0,0,0,0,0,-3.4527,-3.4534,-3.4511,-3.4599,-3.4618,-3.4625,-3.4673,-3.4644,-3.4675,-3.4666,-3.4638,-3.4641,-3.4718,-3.4722,-3.4672,-3.4809,-3.4748,-3.476,-3.4804,-3.4822,-3.4836,-3.4833,-3.4603,0,0,0,0,0,-3.4554,-3.46,-3.4603,-3.468,-3.4691,-3.4681,-3.4704,-3.4686,-3.4704,-3.4712,-3.4714,-3.4732,-3.4771,-3.4797,-3.4832,-3.4924,-3.4926,-3.4968,-3.4983,-3.4995,-3.5005,-3.5055,-3.5073,-3.4872,-3.4872,-3.4872,0,0,-3.461,-3.462,-3.465,-3.4696,-3.4708,-3.4755,-3.4688,-3.474,-3.4774,-3.4719,-3.4787,-3.479,-3.4808,-3.489,-3.4926,-3.4896,-3.5062,-3.5006,-3.5016,-3.5019,-3.5065,-3.5085,-3.5101,-3.4878,-3.4877,-3.4876,0,0,-3.4736,-3.4748,-3.4814,-3.4829,-3.4849,-3.4842,-3.4858,-3.487,-3.487,-3.4938,-3.4898,-3.4937,-3.5004,-3.5019,-3.5035,-3.5168,-3.5134,-3.518,-3.5257,-3.5305,-3.5321,-3.5335,-3.5382,-3.5399,-3.519,-3.519,-3.519,0,-3.4802,-3.4873,-3.4851,-3.4907,-3.4928,-3.4882,-3.4948,-3.4963,-3.4993,-3.5008,-3.4974,-3.5058,-3.5066,-3.5152,-3.5184,-3.5199,-3.5216,-3.5178,-3.5321,-3.5334,-3.5347,-3.5392,-3.5409,-3.5196,-3.5195,-3.5194,-3.5194,0,-3.4953,-3.5003,-3.5053,-3.5086,-3.5113,-3.5173,-3.516,-3.5189,-3.517,-3.5166,-3.5235,-3.5244,-3.5281,-3.53,-3.5281,-3.5383,-3.5363,-3.5325,-3.5264,-3.5372,-3.5413,-3.543,-3.5203,-3.5201,-3.52,-3.5198,0,0,-3.5127,-3.5148,-3.5167,-3.5181,-3.5201,-3.5239,-3.5297,-3.5334,-3.536,-3.5382,-3.543,-3.5488,-3.5454,-3.5472,-3.5454,-3.5497,-3.5602,-3.5454,-3.5454,-3.5481,-3.5714,-3.5742,-3.5763,-3.558,-3.5583,-3.5586,-3.5713,0,-3.5252,-3.5354,-3.5337,-3.5435,-3.548,-3.5438,-3.5488,-3.5506,-3.5504,-3.5541,-3.5538,-3.558,-3.5531,-3.5542,-3.5582,-3.558,-3.5648,-3.5571,-3.5623,-3.5625,-3.562,-3.5784,-3.5814,-3.5933,-3.5729,-3.5731,-3.5733,0,-3.5411,-3.5442,-3.5546,-3.556,-3.5578,-3.5624,-3.5657,-3.5693,-3.5711,-3.5707,-3.5729,-3.5703,-3.576,-3.5698,-3.5776,-3.5724,-3.5744,-3.5747,-3.5751,-3.5754,-3.5686,-3.5792,-3.5971,-3.5989,-3.5759,-3.5757,-3.5755,0,-3.5527,-3.5595,-3.5665,-3.5679,-3.5697,-3.573,-3.5739,-3.5754,-3.5778,-3.5806,-3.5821,-3.5855,-3.5874,-3.59,-3.5884,-3.5841,-3.5965,-3.5902,-3.5962,-3.5962,-3.5989,-3.5988,-3.6174,-3.6003,-3.6003,-3.6003,-3.6002,0,-3.5669,-3.5734,-3.5718,-3.5761,-3.5833,-3.5812,-3.5883,-3.5886,-3.59,-3.5943,-3.5908,-3.5948,-3.5925,-3.5963,-3.5951,-3.6017,-3.6025,-3.6023,-3.6019,-3.6026,-3.6026,-3.6038,-3.6029,-3.6007,-3.6006,-3.6005,-3.6005,0,-3.581,-3.5802,-3.5877,-3.5888,-3.5892,-3.5945,-3.5954,-3.5994,-3.599,-3.6044,-3.6055,-3.6049,-3.6092,-3.6079,-3.6125,-3.6117,-3.6201,-3.6186,-3.6195,-3.6192,-3.6253,-3.6247,-3.6453,-3.6479,-3.6292,-3.6293,-3.6295,0,-3.5901,-3.595,-3.5967,-3.5994,-3.6006,-3.605,-3.6074,-3.6055,-3.6082,-3.6107,-3.6144,-3.6185,-3.6217,-3.6288,-3.6286,-3.6322,-3.6307,-3.6377,-3.6312,-3.6318,-3.6308,-3.6305,-3.631,-3.639,-3.6392,-3.6394,-3.6395,0,-3.6062,-3.6056,-3.6094,-3.613,-3.6161,-3.6189,-3.6213,-3.6236,-3.6219,-3.6251,-3.6296,-3.632,-3.6369,-3.6409,-3.6442,-3.6449,-3.6419,-3.6416,-3.6431,-3.6439,-3.6442,-3.6441,-3.623,-3.6411,-3.6409,-3.6408,-3.6407,-3.6407,-3.618,-3.6222,-3.6242,-3.6285,-3.6301,-3.6325,-3.6364,-3.6365,-3.6403,-3.6442,-3.6428,-3.648,-3.6497,-3.6537,-3.6549,-3.6589,-3.6562,-3.6585,-3.659,-3.6596,-3.6604,-3.6437,-3.6594,-3.6594,-3.6593,-3.6593,-3.6593,0,-3.634,-3.6351,-3.6391,-3.6427,-3.646,-3.6431,-3.6456,-3.6486,-3.6533,-3.6552,-3.6585,-3.6636,-3.6676,-3.6678,-3.6715,-3.6746,-3.6733,-3.6756,-3.6753,-3.6756,-3.6626,-3.6609,-3.6766,-3.6766,-3.6766,-3.6766,-3.6766,-3.6766,-3.6427,-3.6497,-3.6493,-3.6571,-3.658,-3.6632,-3.6649,-3.667,-3.6686,-3.6746,-3.6779,-3.6781,-3.6793,-3.6831,-3.6866,-3.6865,-3.688,-3.6909,-3.6903,-3.6782,-3.6765,-3.6748,-3.6732,-3.6912,-3.6912,-3.7029,-3.703,-3.7031]}]]